Regional Weather Roundup
Issued by NWS

Home | Current Version | Previous Version | Graphics & Text | Print | Product List | Glossary Off
Versions: 1 2 3 4 5 6 7 8 9 10 11 12 13 14 15 16 17 18 19 20 21 22 23 24 25 26 27 28 29 30 31 32 33 34 35 36 37 38 39 40 41 42 43 44 45 46 47 48 49 50

000
ASUS43 KFSD 241102
RWRSD

WEATHER ROUNDUP FOR SOUTH DAKOTA
NATIONAL WEATHER SERVICE SIOUX FALLS SD
600 AM CDT MON APR 24 2017

NOTE: "FAIR" INDICATES FEW OR NO CLOUDS BELOW 12,000 FEET WITH NO
SIGNIFICANT WEATHER AND/OR OBSTRUCTIONS TO VISIBILITY.


SDZ001>005-009-010-012>017-241200-
NORTHWEST AND NORTH CENTRAL SOUTH DAKOTA

CITY           SKY/WX    TMP DP  RH WIND       PRES   REMARKS
BUFFALO          N/A     34  34 100 N15       29.55F WCI  24
FAITH            N/A     32  32 100 N14       29.61R WCI  22
MOBRIDGE       CLOUDY    38  33  82 N7G18     29.54R
$$

SDZ012>016-024>037-041>051-057-063-072>074-241200-
SOUTHWEST AND SOUTH CENTRAL SOUTH DAKOTA

CITY           SKY/WX    TMP DP  RH WIND       PRES   REMARKS
RAPID CTY ARPT CLOUDY    38  37  97 N15       29.59S
PIERRE         CLOUDY    39  36  89 NE6       29.49F
CUSTER         CLOUDY    46  37  71 NE6       29.60R
ELLSWORTH AFB  CLOUDY    38  38 100 N10       29.59F
PHILIP         CLOUDY    39  37  92 NW10      29.57R
PINE RIDGE     CLOUDY    42  40  92 CALM      29.55S
SPEARFISH      FOG       39  39 100 NW5       29.61F VSB<1/4
WINNER         FAIR      56  37  49 S17G24    29.52F
$$

SDZ004>011-016>023-039-040-241200-
NORTHEAST SOUTH DAKOTA

CITY           SKY/WX    TMP DP  RH WIND       PRES   REMARKS
ABERDEEN       CLOUDY    41  36  82 N8        29.55F
WATERTOWN      MOCLDY    48  36  63 SE9       29.61F
BROOKINGS      CLOUDY    52  34  50 S15G22    29.65F
SISSETON         N/A     40  38  93 SW3       29.59F
$$

SDZ017-020-022-023-036>040-048>070-241200-
SOUTHEAST SOUTH DAKOTA

CITY           SKY/WX    TMP DP  RH WIND       PRES   REMARKS
SIOUX FALLS    CLOUDY    54  36  50 S16G29    29.66F
HURON          CLOUDY    52  37  56 S14G24    29.56F
CHAMBERLAIN    MOCLDY    56  39  53 SE13      29.53F
MITCHELL       CLOUDY    53  38  56 S13       29.59F
YANKTON        CLOUDY    55  34  44 S12       29.65F
$$

ABBREVIATIONS USED IN REMARKS
   TC - TEMPERATURE IN CELSIUS
  WCI - WIND CHILL INDEX
   HX - HEAT INDEX
  VSB - VISIBILITY





USA.gov is the U.S. government's official web portal to all federal, state and local government web resources and services.